This is the latest recevied weather packets stored in our database for station/object SP1BMW-13. If no packets are shown the sender has not sent any weather packets the latest 10 day(s).
| Time | Temp. | Humidity | Pressure | Rain* | Wind** | Luminosity | Snow |
|---|---|---|---|---|---|---|---|
| 1778156575 | 13.89° C | 52% | 1014.2 hPa | 0 mm | 3.13 m/s, 29° | 539 W/m² | - |
| 1778156514 | 13.89° C | 53% | 1014.4 hPa | 0 mm | 0.89 m/s, 42° | 556 W/m² | - |
| 1778156454 | 13.89° C | 52% | 1014.3 hPa | 0 mm | 2.24 m/s, 326° | 383 W/m² | - |
| 1778156394 | 13.89° C | 55% | 1014.2 hPa | 0 mm | 2.24 m/s, 144° | 490 W/m² | - |
| 1778156334 | 13.89° C | 54% | 1014.2 hPa | 0 mm | 0.45 m/s, 122° | 605 W/m² | - |
| 1778156275 | 13.89° C | 51% | 1014.3 hPa | 0 mm | 2.24 m/s, 22° | 656 W/m² | - |
| 1778156214 | 13.89° C | 52% | 1014.1 hPa | 0 mm | 1.34 m/s, 338° | 695 W/m² | - |
| 1778156155 | 13.89° C | 52% | 1014.2 hPa | 0 mm | 1.79 m/s, 32° | 700 W/m² | - |
| 1778156094 | 13.89° C | 50% | 1014.2 hPa | 0 mm | 1.79 m/s, 41° | 779 W/m² | - |
| 1778156035 | 13.89° C | 52% | 1014.2 hPa | 0 mm | 0.89 m/s, 56° | 766 W/m² | - |
| 1778155974 | 13.89° C | 53% | 1014.3 hPa | 0 mm | 1.34 m/s, 336° | 753 W/m² | - |
| 1778155915 | 13.89° C | 52% | 1014.2 hPa | 0 mm | 0.89 m/s, 66° | 709 W/m² | - |
| 1778155855 | 13.33° C | 54% | 1014.3 hPa | 0 mm | 0.45 m/s, 75° | 713 W/m² | - |
| 1778155794 | 13.33° C | 55% | 1014.2 hPa | 0 mm | 0.45 m/s, 29° | 690 W/m² | - |
| 1778155734 | 13.33° C | 54% | 1014.2 hPa | 0 mm | 0.45 m/s, 1° | 768 W/m² | - |
| 1778155674 | 13.33° C | 53% | 1014.1 hPa | 0 mm | 2.24 m/s, 329° | 775 W/m² | - |
| 1778155614 | 13.33° C | 54% | 1014.2 hPa | 0 mm | 1.79 m/s, 47° | 657 W/m² | - |
| 1778155554 | 13.33° C | 55% | 1014.1 hPa | 0 mm | 0 m/s | 590 W/m² | - |
| 1778155495 | 13.33° C | 53% | 1014.1 hPa | 0 mm | 0.45 m/s, 56° | 480 W/m² | - |
| 1778155435 | 13.33° C | 53% | 1014.1 hPa | 0 mm | 1.34 m/s, 7° | 450 W/m² | - |
| 1778155374 | 12.78° C | 54% | 1014.1 hPa | 0 mm | 0 m/s | 417 W/m² | - |
| 1778155314 | 12.78° C | 55% | 1014 hPa | 0 mm | 0.45 m/s, 101° | 403 W/m² | - |
| 1778155254 | 12.78° C | 56% | 1014.1 hPa | 0 mm | 0.45 m/s, 67° | 429 W/m² | - |
| 1778155194 | 12.78° C | 53% | 1014.1 hPa | 0 mm | 0.89 m/s, 40° | 396 W/m² | - |
| 1778155134 | 12.78° C | 54% | 1014.1 hPa | 0 mm | 0.89 m/s, 60° | 422 W/m² | - |
* Rain latest hour (hover to see other rain measurements)
** Current wind speed in m/s (hover to see current wind gust speed)